KCKM

Details ICAO KCKM
Name FLETCHER FLD
Region United States
Timezone America/Chicago (UTC-5.0)
Plans Departing 0
Arriving 1
Stats Elevation 173 ft / 53 m (AMSL)
Location 34.299710° -90.512316°
Runways 1
Magnetic Variation 0.958° W
Sunrise 2018-05-25 10:55:18 UTC / 2018-05-25 05:55:18 Local
Sunset 2018-05-26 01:05:36 UTC / 2018-05-25 20:05:36 Local
Advertisement - Login to hide

Runways

ID Width Length Bearing (true) Bearing (mag) Surface Threshold Offset Overrun Length
18 100 ft / 30 m 5,419 ft / 1,652 m 182.60° 183.56° Asphalt 0 ft / 0 m 0 ft / 0 m
36 100 ft / 30 m 5,419 ft / 1,652 m 2.60° 3.56° Asphalt 0 ft / 0 m 0 ft / 0 m

Map

Weather


0- 5 10 15 20 25 30 35+ Temperature / ° C

Clouds and Precipitation
Forecast for 2018-05-26 00:00 UTC. Updated 3 hours ago

Ground ~20,000 ft ~40,000 ft Winds

METAR

KCKM 260215Z AUTO 00000KT 10SM CLR 24/24 A2989 RMK A01

TAF

Not found

Frequencies

Recorded 120.67 MHz AWOS 3
Unicom 122.80 MHz CTAF/UNICOM
Warning: Do not use this data for real-world aviation or navigation. No guarantee of current accuracy is given.